User: anonymous   Login
Location: Chin
(49.7667°N, 112.4500°W)
Time: 12:30:56
(UTC+00:00)
Language:

N. Korean satellite - Orbit

View from above orbital plane
View from above orbital plane
View from above satellite
View from above satellite

Ground track
Ground track

The orbit data is extracted from the following two-line orbital elements,

1 39026U 12072A   22021.25660792  .00007790  00000-0  24837-3 0  9996
2 39026  97.2603  14.2697 0032563 330.1771  29.7615 15.32276810506410
Epoch (UTC): 21 January 2022 06:09:30
Eccentricity: 0.0032563
inclination: 97.2603°
perigee height: 447 km
apogee height: 491 km
right ascension of ascending node: 14.2697°
argument of perigee: 330.1771°
revolutions per day: 15.32276810
mean anomaly at epoch: 29.7615°
orbit number at epoch: 50641

The dashed part of the orbit path shows where the satellite is in the earth's shadow,  

DLR